DW1814 Weather Reports


time (UTC)temp
F
wind
direction
speed
knots
gust
knots
rain 1hr
in
rain 24hr
in
rain mn
in
humidity
%
barometer
mb
20260906113655 65 52 0.0 1.7 0.00 0.00 0.00 99 1017.7
20260906113155 65 40 0.0 1.7 0.00 0.00 0.00 99 1017.7
20260906112654 65 45 0.0 1.7 0.00 0.00 0.00 99 1017.7
20260906112152 65 33 0.9 1.7 0.00 0.00 0.00 99 1017.4
20260906111651 65 69 0.0 0.9 0.00 0.00 0.00 99 1017.6
20260906111145 65 72 0.9 1.7 0.00 0.00 0.00 99 1017.7
20260906110641 65 46 0.0 1.7 0.00 0.00 0.00 99 1017.5
20260906110136 65 85 1.7 1.7 0.00 0.00 0.00 99 1017.4
20260906105629 65 26 0.0 1.7 0.00 0.00 0.00 99 1017.4
20260906105126 65 22 0.0 1.7 0.00 0.00 0.00 99 1017.4
20260906104625 65 17 1.7 1.7 0.00 0.00 0.00 99 1017.3
20260906104119 65 14 0.0 1.7 0.00 0.00 0.00 99 1017.3
20260906103617 64 359 0.9 2.6 0.00 0.00 0.00 99 1017.4
20260906103114 64 35 1.7 1.7 0.00 0.00 0.00 99 1017.4
20260906102613 64 54 0.9 1.7 0.00 0.00 0.00 99 1017.3
20260906102108 64 38 0.9 1.7 0.00 0.00 0.00 99 1017.2
20260906101609 64 51 1.7 1.7 0.00 0.00 0.00 99 1017.0
20260906101108 64 56 0.9 1.7 0.00 0.00 0.00 99 1016.9
20260906100604 64 51 0.0 1.7 0.00 0.00 0.00 99 1017.2
20260906100059 64 49 0.0 1.7 0.00 0.00 0.00 99 1017.3
20260906095559 64 40 0.0 0.9 0.00 0.00 0.00 99 1017.2
20260906095054 65 60 0.9 0.9 0.00 0.00 0.00 99 1017.2
20260906094553 65 37 0.9 0.9 0.00 0.00 0.00 99 1017.1
20260906094049 65 55 0.0 1.7 0.00 0.00 0.00 99 1017.1
20260906093544 65 25 0.0 0.9 0.00 0.00 0.00 99 1016.9
20260906093040 65 46 0.0 1.7 0.00 0.00 0.00 99 1016.9
20260906092540 65 50 0.9 1.7 0.00 0.00 0.00 99 1017.1
20260906092035 65 34 0.9 0.9 0.00 0.00 0.00 99 1016.9
20260906091531 65 19 1.7 1.7 0.00 0.00 0.00 99 1016.8
20260906091028 65 35 1.7 1.7 0.00 0.00 0.00 98 1017.0
20260906090527 65 37 0.0 0.9 0.00 0.00 0.00 98 1017.0
20260906090023 65 32 0.9 1.7 0.00 0.00 0.00 98 1017.0
20260906085521 65 31 1.7 2.6 0.00 0.00 0.00 98 1016.8
20260906085021 65 51 0.9 1.7 0.00 0.00 0.00 98 1016.6
20260906084521 65 39 1.7 1.7 0.00 0.00 0.00 98 1016.8
20260906084020 65 41 0.9 1.7 0.00 0.00 0.00 98 1017.0
20260906083516 65 32 1.7 1.7 0.00 0.00 0.00 98 1016.9
20260906083015 65 51 0.0 0.9 0.00 0.00 0.00 98 1016.8
20260906082510 65 61 0.9 1.7 0.00 0.00 0.00 98 1016.7
20260906082006 65 48 0.0 0.9 0.00 0.00 0.00 98 1016.7
20260906081502 65 40 0.0 1.7 0.00 0.00 0.00 98 1016.9
20260906080957 65 37 0.0 0.9 0.00 0.00 0.00 98 1016.9
20260906080454 65 53 0.0 0.9 0.00 0.00 0.00 98 1016.8
20260906075954 66 69 0.9 0.9 0.00 0.00 0.00 97 1016.8
20260906075449 66 53 0.0 0.9 0.00 0.00 0.00 97 1016.7
20260906074945 66 35 0.9 1.7 0.00 0.00 0.00 97 1016.9
20260906074444 66 54 0.9 1.7 0.00 0.00 0.00 97 1016.9
20260906073943 66 41 0.9 1.7 0.00 0.00 0.00 97 1016.8
20260906073438 66 44 0.9 1.7 0.00 0.00 0.00 97 1016.7
20260906072934 66 40 0.9 0.9 0.00 0.00 0.00 97 1016.8
20260906072429 66 55 0.9 1.7 0.00 0.00 0.00 97 1016.9
20260906071925 67 48 0.9 1.7 0.00 0.00 0.00 97 1016.9
20260906071421 67 50 0.9 1.7 0.00 0.00 0.00 96 1016.9
20260906070917 67 53 0.0 0.9 0.00 0.00 0.00 96 1016.8
20260906070413 67 67 0.0 0.9 0.00 0.00 0.00 96 1017.0
20260906065908 67 43 0.0 0.9 0.00 0.00 0.00 96 1017.1
20260906065402 67 37 1.7 1.7 0.00 0.00 0.00 96 1017.0
20260906064858 68 34 0.9 1.7 0.00 0.00 0.00 96 1016.8
20260906064355 68 30 1.7 1.7 0.00 0.00 0.00 96 1016.8
20260906063854 68 10 1.7 1.7 0.00 0.00 0.00 96 1016.9
20260906063349 68 14 0.9 1.7 0.00 0.00 0.00 96 1016.9
20260906062844 68 35 1.7 2.6 0.00 0.00 0.00 95 1017.1
20260906062344 68 11 0.9 1.7 0.00 0.00 0.00 95 1017.2
20260906061839 69 17 1.7 1.7 0.00 0.00 0.00 95 1016.9
20260906061336 69 346 2.6 3.5 0.00 0.00 0.00 95 1016.7
20260906060836 69 23 3.5 3.5 0.00 0.00 0.00 94 1017.0
20260906060334 69 17 1.7 2.6 0.00 0.00 0.00 94 1017.0
20260906055830 69 16 1.7 2.6 0.00 0.00 0.00 94 1017.0
20260906055325 69 8 1.7 2.6 0.00 0.00 0.00 94 1017.0
20260906054820 69 20 1.7 2.6 0.00 0.00 0.00 94 1017.2
20260906054315 69 26 1.7 1.7 0.00 0.00 0.00 94 1017.1
20260906053812 69 11 2.6 2.6 0.00 0.00 0.00 94 1017.1
20260906053307 69 30 1.7 1.7 0.00 0.00 0.00 94 1017.1
20260906052802 69 26 0.9 1.7 0.00 0.00 0.00 93 1016.9
20260906052258 69 31 1.7 2.6 0.00 0.00 0.00 94 1016.9
20260906051755 69 19 1.7 2.6 0.00 0.00 0.00 94 1016.6
20260906051254 69 27 1.7 1.7 0.00 0.00 0.00 93 1016.6
20260906050750 69 23 1.7 3.5 0.00 0.00 0.00 93 1016.7
20260906050245 69 23 1.7 2.6 0.00 0.00 0.00 93 1016.7
20260906045744 69 28 0.9 1.7 0.00 0.00 0.00 93 1016.7
20260906045239 69 10 1.7 1.7 0.00 0.00 0.00 94 1016.6
20260906044734 69 9 0.9 1.7 0.00 0.00 0.00 94 1016.6
20260906044229 69 5 0.9 2.6 0.00 0.00 0.00 94 1016.5
20260906043726 69 0 0.9 2.6 0.00 0.00 0.00 94 1016.4
20260906043221 69 41 1.7 2.6 0.00 0.00 0.00 94 1016.2
20260906042720 69 35 1.7 2.6 0.00 0.00 0.00 94 1016.4
20260906042219 69 349 1.7 1.7 0.00 0.00 0.00 93 1016.1
20260906041715 69 20 2.6 3.5 0.00 0.00 0.00 93 1016.4
20260906041210 69 17 1.7 1.7 0.00 0.00 0.00 94 1016.0
20260906040706 69 29 2.6 3.5 0.00 0.00 0.00 93 1015.9
20260906040201 69 5 1.7 3.5 0.00 0.00 0.00 93 1015.8
20260906035657 69 56 1.7 3.5 0.00 0.00 0.00 93 1015.8
20260906035152 69 17 1.7 3.5 0.00 0.00 0.00 93 1015.9
20260906034647 69 24 2.6 3.5 0.00 0.00 0.00 93 1015.7
20260906034141 69 27 3.5 3.5 0.00 0.00 0.00 93 1016.0
20260906033637 69 16 0.9 1.7 0.00 0.00 0.00 93 1015.7
20260906033131 69 24 1.7 2.6 0.00 0.00 0.00 92 1015.9
20260906032628 69 9 1.7 2.6 0.00 0.00 0.00 92 1015.7
20260906032128 69 74 1.7 2.6 0.00 0.00 0.00 92 1015.6
20260906031623 69 114 0.0 2.6 0.00 0.00 0.00 92 1015.8
20260906031119 69 8 1.7 2.6 0.00 0.00 0.00 92 1015.8
20260906030618 69 37 1.7 2.6 0.00 0.00 0.00 92 1015.7
20260906030113 69 42 1.7 3.5 0.00 0.00 0.00 92 1015.7
20260906025613 70 43 1.7 2.6 0.00 0.00 0.00 92 1015.8
20260906025111 70 53 0.0 1.7 0.00 0.00 0.00 92 1016.0
20260906024606 70 50 0.9 1.7 0.00 0.00 0.00 91 1015.7
20260906024102 70 70 0.9 2.6 0.00 0.00 0.00 91 1015.8
20260906023557 70 81 0.0 3.5 0.00 0.00 0.00 91 1015.7
20260906023051 70 67 0.9 3.5 0.00 0.00 0.00 90 1015.6
20260906022547 70 22 2.6 3.5 0.00 0.00 0.00 90 1015.4
20260906022043 70 0 1.7 2.6 0.00 0.00 0.00 90 1015.5
20260906021538 71 20 1.7 2.6 0.00 0.00 0.00 90 1015.6
20260906021037 71 63 0.0 2.6 0.00 0.00 0.00 90 1015.4
20260906020536 71 89 1.7 1.7 0.00 0.00 0.00 89 1015.6
20260906020036 71 26 1.7 1.7 0.00 0.00 0.00 89 1015.5
20260906015535 71 22 1.7 1.7 0.00 0.00 0.00 89 1015.7
20260906015035 71 354 0.9 3.5 0.00 0.00 0.00 89 1015.9
20260906014530 71 42 0.9 1.7 0.00 0.00 0.00 89 1015.9
20260906014026 71 18 1.7 3.5 0.00 0.00 0.00 90 1015.8
20260906013521 71 13 3.5 3.5 0.00 0.00 0.00 90 1015.7
20260906013017 71 350 2.6 3.5 0.00 0.00 0.00 90 1015.9
20260906012512 71 4 1.7 3.5 0.00 0.00 0.00 90 1015.5
20260906012011 71 356 1.7 2.6 0.00 0.00 0.00 90 1015.7
20260906011508 71 17 0.9 3.5 0.00 0.00 0.00 89 1016.1
20260906011008 71 338 1.7 3.5 0.00 0.00 0.00 89 1015.7
20260906010503 71 1 4.3 5.2 0.00 0.00 0.00 89 1015.9
20260906005959 71 38 2.6 3.5 0.00 0.00 0.00 89 1015.6
20260906005458 71 6 1.7 3.5 0.00 0.00 0.00 89 1015.6
20260906004957 71 347 3.5 3.5 0.00 0.00 0.00 89 1015.7
20260906004457 71 28 3.5 3.5 0.00 0.00 0.00 89 1015.4
20260906003952 71 354 1.7 1.7 0.00 0.00 0.00 89 1015.5
20260906003447 71 37 3.5 3.5 0.00 0.00 0.00 89 1015.4
20260906002937 71 341 5.2 6.1 0.00 0.00 0.00 89 1015.4
20260906002436 71 69 3.5 4.3 0.00 0.00 0.00 88 1015.4
20260906001931 71 317 1.7 4.3 0.00 0.00 0.00 88 1015.2
20260906001427 71 29 3.5 3.5 0.00 0.00 0.00 89 1015.3
20260906000917 71 15 1.7 2.6 0.00 0.00 0.00 89 1015.3
20260906000412 71 1 2.6 3.5 0.00 0.00 0.00 89 1015.3
20260905235907 71 9 1.7 5.2 0.00 0.00 0.00 89 1015.4
20260905235407 71 308 0.0 4.3 0.00 0.00 0.00 89 1015.2
20260905234902 71 351 2.6 6.1 0.00 0.00 0.00 89 1015.1
20260905234357 71 118 1.7 3.5 0.00 0.00 0.00 88 1015.2
20260905233852 72 275 1.7 7.8 0.00 0.00 0.00 88 1015.3
20260905233347 72 351 3.5 4.3 0.00 0.00 0.00 88 1015.1
20260905232846 72 344 2.6 4.3 0.00 0.00 0.00 88 1015.3
20260905232343 73 345 2.6 6.1 0.00 0.00 0.00 87 1015.0
20260905231838 73 351 1.7 3.5 0.00 0.00 0.00 86 1015.4
20260905231338 74 341 2.6 5.2 0.00 0.00 0.00 85 1014.9
20260905230835 74 337 2.6 4.3 0.00 0.00 0.00 85 1014.9
20260905230333 75 338 2.6 5.2 0.00 0.00 0.00 84 1014.9
20260905225832 75 14 2.6 4.3 0.00 0.00 0.00 83 1014.9
20260905225328 76 7 3.5 5.2 0.00 0.00 0.00 82 1014.8
20260905224827 76 352 0.9 3.5 0.00 0.00 0.00 83 1015.0
20260905224323 76 353 1.7 2.6 0.00 0.00 0.00 83 1014.8
20260905223818 76 352 2.6 3.5 0.00 0.00 0.00 83 1014.4
20260905223316 77 9 1.7 4.3 0.00 0.00 0.00 82 1014.5
20260905222811 77 64 1.7 7.0 0.00 0.00 0.00 80 1014.6
20260905222309 78 358 3.5 6.1 0.00 0.00 0.00 80 1014.4
20260905221805 78 6 2.6 3.5 0.00 0.00 0.00 80 1014.6
20260905221302 78 353 1.7 3.5 0.00 0.00 0.00 81 1014.6
20260905220757 77 18 3.5 6.1 0.00 0.00 0.00 81 1014.6
20260905220254 78 335 3.5 4.3 0.00 0.00 0.00 80 1014.5
20260905215753 79 353 3.5 5.2 0.00 0.00 0.00 79 1014.6
20260905215249 79 354 2.6 2.6 0.00 0.00 0.00 80 1014.6
20260905214744 79 41 0.9 3.5 0.00 0.00 0.00 81 1014.2
20260905214240 79 34 0.0 4.3 0.00 0.00 0.00 80 1014.2
20260905213735 80 318 2.6 3.5 0.00 0.00 0.00 80 1014.5
20260905213231 80 97 3.5 4.3 0.00 0.00 0.00 79 1014.2
20260905212726 79 15 2.6 3.5 0.00 0.00 0.00 79 1014.1
20260905212225 79 346 1.7 3.5 0.00 0.00 0.00 79 1014.2
20260905211720 79 343 1.7 2.6 0.00 0.00 0.00 77 1014.2
20260905211215 80 353 2.6 3.5 0.00 0.00 0.00 75 1014.1
20260905210712 80 349 3.5 4.3 0.00 0.00 0.00 75 1013.9
20260905210211 79 356 1.7 3.5 0.00 0.00 0.00 77 1014.0
20260905205711 79 357 1.7 1.7 0.00 0.00 0.00 78 1013.9
20260905205210 80 19 1.7 2.6 0.00 0.00 0.00 77 1014.0
20260905204710 80 12 1.7 2.6 0.00 0.00 0.00 76 1014.2
20260905204206 79 3 2.6 3.5 0.00 0.00 0.00 79 1014.4
20260905203700 79 341 2.6 5.2 0.00 0.00 0.00 77 1014.2
20260905203156 80 334 2.6 4.3 0.00 0.00 0.00 76 1014.3
20260905202651 79 34 1.7 2.6 0.00 0.00 0.00 78 1014.2
20260905202146 79 347 2.6 3.5 0.00 0.00 0.00 78 1014.2
20260905201642 80 345 2.6 5.2 0.00 0.00 0.00 78 1014.2
20260905201141 80 339 0.9 4.3 0.00 0.00 0.00 77 1014.2
20260905200637 80 325 1.7 3.5 0.00 0.00 0.00 79 1014.1
20260905200132 79 29 3.5 4.3 0.00 0.00 0.00 79 1014.2
20260905195625 79 21 2.6 3.5 0.00 0.00 0.00 80 1014.3
20260905195121 78 358 3.5 3.5 0.00 0.00 0.00 80 1014.4
20260905194621 79 332 3.5 5.2 0.00 0.00 0.00 80 1014.6
20260905194120 79 337 3.5 6.1 0.00 0.00 0.00 79 1014.4
20260905193615 79 336 0.0 3.5 0.00 0.00 0.00 80 1014.6
20260905193110 79 11 1.7 3.5 0.00 0.00 0.00 81 1014.7
20260905192606 78 103 0.0 3.5 0.00 0.00 0.00 83 1014.6
20260905192102 77 337 0.0 4.3 0.00 0.00 0.00 84 1014.7
20260905191600 77 67 1.7 5.2 0.00 0.00 0.00 84 1014.5
20260905191059 76 298 3.5 4.3 0.00 0.00 0.00 85 1014.8
20260905190557 76 341 1.7 3.5 0.00 0.00 0.00 86 1014.9
20260905190057 76 358 0.0 1.7 0.00 0.00 0.00 87 1014.8
20260905185556 76 329 1.7 3.5 0.00 0.00 0.00 87 1015.1
20260905185055 76 355 3.5 4.3 0.00 0.00 0.00 87 1014.9
20260905184550 76 346 0.9 3.5 0.00 0.00 0.00 86 1014.9
20260905184049 76 351 1.7 4.3 0.00 0.00 0.00 86 1014.9
20260905183549 76 347 1.7 3.5 0.00 0.00 0.00 85 1015.1
20260905183044 76 329 2.6 2.6 0.00 0.00 0.00 87 1014.8
20260905182538 76 356 1.7 3.5 0.00 0.00 0.00 86 1015.0
20260905182033 76 335 1.7 2.6 0.00 0.00 0.00 86 1015.0
20260905181527 76 26 1.7 1.7 0.00 0.00 0.00 87 1015.1
20260905181027 76 317 1.7 2.6 0.00 0.00 0.00 86 1015.0
20260905180521 76 355 3.5 3.5 0.00 0.00 0.00 87 1015.0
20260905180017 76 343 1.7 3.5 0.00 0.00 0.00 87 1014.9
20260905175516 76 7 3.5 4.3 0.00 0.00 0.00 87 1014.6
20260905175012 75 27 1.7 2.6 0.00 0.00 0.00 88 1014.9
20260905174507 75 283 0.9 3.5 0.00 0.00 0.00 88 1014.9
20260905174003 75 315 2.6 3.5 0.00 0.00 0.00 88 1014.8
20260905173459 75 18 1.7 2.6 0.00 0.00 0.00 88 1014.8
20260905172954 75 326 2.6 4.3 0.00 0.00 0.00 88 1014.9
20260905172452 75 322 2.6 4.3 0.00 0.00 0.00 88 1014.8
20260905171948 75 332 1.7 4.3 0.00 0.00 0.00 89 1014.8
20260905171444 75 354 1.7 3.5 0.00 0.00 0.00 89 1014.7
20260905170940 75 10 5.2 5.2 0.00 0.00 0.00 89 1014.8
20260905170436 75 295 3.5 4.3 0.00 0.00 0.00 89 1015.1
20260905165936 75 338 3.5 3.5 0.00 0.00 0.00 89 1015.1
20260905165431 75 335 3.5 4.3 0.00 0.00 0.00 88 1015.1
20260905164926 76 5 2.6 4.3 0.00 0.00 0.00 88 1014.9
20260905164426 76 326 1.7 3.5 0.00 0.00 0.00 88 1015.2
20260905163921 76 15 1.7 2.6 0.00 0.00 0.00 89 1015.0
20260905163417 76 348 1.7 6.1 0.00 0.00 0.00 88 1015.0
20260905162913 76 330 1.7 4.3 0.00 0.00 0.00 88 1014.8
20260905162408 76 345 2.6 3.5 0.00 0.00 0.00 89 1015.0
20260905161903 76 355 2.6 3.5 0.00 0.00 0.00 88 1015.0
20260905161401 76 336 2.6 3.5 0.00 0.00 0.00 88 1015.1
20260905160900 76 347 1.7 2.6 0.00 0.00 0.00 88 1015.1
20260905160354 76 336 2.6 2.6 0.00 0.00 0.00 89 1015.0
20260905155849 76 5 1.7 3.5 0.00 0.00 0.00 89 1014.8
20260905155348 76 312 2.6 4.3 0.00 0.00 0.00 89 1014.9
20260905154847 76 335 1.7 3.5 0.00 0.00 0.00 89 1014.5
20260905154343 76 316 3.5 7.0 0.00 0.00 0.00 88 1014.8
20260905153838 77 343 0.9 4.3 0.00 0.00 0.00 87 1014.7
20260905153335 77 315 0.9 2.6 0.00 0.00 0.00 88 1014.5
20260905152834 77 328 1.7 3.5 0.00 0.00 0.00 89 1014.5
20260905152334 77 326 2.6 4.3 0.00 0.00 0.00 89 1014.3
20260905151829 77 4 2.6 3.5 0.00 0.00 0.00 89 1014.4
20260905151325 77 332 1.7 3.5 0.00 0.00 0.00 89 1014.2
20260905150824 77 346 1.7 4.3 0.00 0.00 0.00 90 1014.4
20260905150319 77 324 1.7 4.3 0.00 0.00 0.00 89 1014.3
20260905145817 77 344 2.6 7.0 0.00 0.00 0.00 89 1014.2
20260905145316 76 19 1.7 4.3 0.00 0.00 0.00 92 1014.4
20260905144815 75 0 1.7 2.6 0.00 0.00 0.00 95 1014.3
20260905144311 74 5 1.7 3.5 0.00 0.00 0.00 96 1014.4
20260905143809 74 359 1.7 3.5 0.00 0.00 0.00 96 1014.4
20260905143304 74 8 1.7 3.5 0.00 0.00 0.00 97 1014.1
20260905142803 73 7 2.6 3.5 0.00 0.00 0.00 98 1014.1
20260905142257 73 340 1.7 2.6 0.00 0.00 0.00 98 1014.3
20260905141753 73 337 1.7 3.5 0.00 0.00 0.00 99 1014.2
20260905141249 73 352 2.6 4.3 0.00 0.00 0.00 99 1014.3
20260905140745 73 326 2.6 5.2 0.00 0.00 0.00 99 1014.1
20260905140244 73 326 1.7 2.6 0.00 0.00 0.00 99 1014.1
20260905135743 73 324 2.6 5.2 0.00 0.00 0.00 99 1014.1
20260905135240 73 322 2.6 3.5 0.00 0.00 0.00 99 1013.9
20260905134739 73 12 1.7 2.6 0.00 0.00 0.00 99 1014.3
20260905134239 72 6 1.7 2.6 0.00 0.00 0.00 99 1014.0
20260905133733 73 343 2.6 3.5 0.00 0.00 0.00 99 1014.0
20260905133228 72 345 1.7 1.7 0.00 0.00 0.00 99 1013.9
20260905132727 72 339 1.7 1.7 0.00 0.00 0.00 99 1014.0
20260905132223 72 22 1.7 2.6 0.00 0.00 0.00 99 1014.1
20260905131718 72 336 1.7 2.6 0.00 0.00 0.00 99 1014.5
20260905131214 72 329 1.7 2.6 0.00 0.00 0.00 99 1014.6
20260905130708 72 320 1.7 1.7 0.00 0.00 0.00 99 1014.1
20260905130207 71 7 0.9 2.6 0.00 0.00 0.00 99 1013.8
20260905125702 71 13 1.7 1.7 0.00 0.00 0.00 99 1014.0
20260905125157 71 347 1.7 2.6 0.00 0.00 0.00 99 1013.9
20260905124654 71 341 1.7 2.6 0.00 0.00 0.00 99 1014.0
20260905124149 71 351 1.7 4.3 0.00 0.00 0.00 99 1013.8
20260905123644 71 353 0.9 2.6 0.00 0.00 0.00 99 1013.6
20260905123142 71 39 2.6 3.5 0.00 0.00 0.00 99 1013.5
20260905122641 71 322 1.7 2.6 0.00 0.00 0.00 99 1013.5
20260905122136 71 344 1.7 2.6 0.00 0.00 0.00 99 1013.4
20260905121631 71 339 1.7 1.7 0.00 0.00 0.00 99 1013.2
20260905121126 71 8 2.6 5.2 0.00 0.00 0.00 99 1013.2
20260905120625 71 348 4.3 4.3 0.00 0.00 0.00 99 1013.2
20260905120120 71 332 1.7 2.6 0.00 0.00 0.00 99 1013.0
20260905115619 71 353 0.0 1.7 0.00 0.00 0.00 99 1013.0
20260905115114 71 1 2.6 2.6 0.00 0.00 0.00 99 1013.2
20260905114614 71 6 2.6 2.6 0.00 0.00 0.00 99 1012.7
20260905114113 71 28 1.7 2.6 0.00 0.00 0.00 99 1012.8